Wind_Speed
73 72 73 73 73 74 74 75 75 75 76 76 75 75 73 73 72 71 70 69 69 66 64 61 60 61 62 63 60 57 57 58 60 56 54 54 54 52 48 45 44 44 44 45 49 53 57 60 64 65 68 71 74 74 73 72 71 69 66 62 59 57 55 51 47 46 45 45 45 45 43 41 39 38 37 35 31 26 24 23 23 22 21 21 20
74 74 74 74 75 75 76 77 77 77 78 78 77 76 74 72 71 71 71 70 70 68 66 63 62 63 62 64 62 60 61 63 63 59 58 57 56 52 47 45 44 46 48 52 56 60 64 68 70 71 72 73 73 73 73 72 70 67 62 58 54 52 49 46 45 44 44 44 44 42 41 39 38 37 36 33 28 24 23 22 23 22 21 21 20
75 75 75 75 76 76 77 78 78 78 79 79 78 76 74 72 71 71 72 72 71 70 67 63 61 62 62 63 63 63 66 69 68 64 64 61 55 49 47 48 51 55 58 61 64 67 71 74 74 74 73 72 72 72 72 69 66 61 56 52 49 47 44 43 43 43 43 43 41 39 38 38 37 36 34 30 26 23 22 22 22 22 21 21 20
76 76 76 76 77 77 78 79 79 79 80 80 79 77 75 74 73 73 73 73 72 71 68 65 62 62 63 62 63 67 70 72 72 70 70 67 61 58 58 60 62 65 68 70 72 74 76 77 76 74 73 72 71 70 67 64 60 55 51 47 45 43 42 42 41 40 40 39 39 37 37 36 36 34 30 27 24 22 22 22 22 22 22 22 21
78 78 77 77 77 78 79 79 80 80 81 80 80 79 78 76 75 74 74 74 73 73 71 69 66 65 66 66 67 70 74 76 75 72 71 70 70 70 70 71 72 73 75 76 76 77 77 75 74 73 72 70 68 65 62 58 54 49 46 43 42 41 41 39 38 37 37 37 37 36 35 35 34 31 27 25 23 22 23 22 22 22 22 22 21
79 78 78 78 78 79 80 81 81 82 82 81 81 81 80 78 77 76 75 75 74 73 73 72 71 71 72 72 72 73 75 77 76 74 73 74 75 75 76 76 77 78 78 77 75 75 74 73 71 70 68 66 63 59 56 52 48 45 42 41 40 40 38 36 35 34 35 36 35 35 34 32 30 27 25 23 23 23 23 22 22 22 22 22 22
79 78 78 78 79 80 81 81 82 82 82 82 82 82 81 80 79 78 77 76 75 75 75 74 74 74 74 74 74 74 75 75 76 76 77 77 77 77 78 78 78 79 79 77 74 71 70 69 68 66 64 61 58 54 51 47 44 42 40 39 39 38 36 34 33 33 34 34 33 33 31 29 27 25 23 23 23 23 23 22 23 23 23 23 22
79 78 78 78 79 80 81 82 82 82 82 82 82 82 82 82 81 79 78 78 77 77 76 76 75 74 74 75 77 77 77 76 76 77 77 77 76 76 77 77 77 77 76 75 72 69 68 67 65 63 60 57 53 50 46 44 42 40 39 38 37 35 34 33 32 32 33 32 31 30 29 27 25 23 23 23 23 23 22 22 23 23 23 23 23
79 79 79 79 80 81 81 82 83 83 83 83 82 82 82 82 82 80 80 79 79 78 78 77 76 76 76 78 79 79 78 78 78 76 76 76 76 75 75 75 75 74 73 72 69 67 66 65 62 58 55 52 49 45 42 42 41 39 38 37 35 33 32 32 31 31 31 29 28 27 27 25 24 23 23 23 23 22 22 23 23 23 23 24 24
80 80 80 80 81 81 82 82 83 84 83 83 83 83 83 82 82 81 81 80 80 79 79 78 77 78 78 79 79 79 79 79 78 77 75 75 74 73 73 72 72 71 69 67 65 65 64 61 57 54 51 47 44 41 41 41 40 39 38 36 32 31 31 31 31 30 29 27 25 26 25 24 24 24 23 23 23 22 22 23 23 23 23 24 25
81 81 81 81 81 81 82 82 83 84 84 84 84 84 84 83 82 82 81 81 80 79 79 79 79 79 79 80 80 80 79 78 77 77 76 75 73 71 69 68 67 65 63 63 62 61 59 56 52 49 45 42 40 41 42 41 40 39 36 34 30 29 30 30 30 30 28 25 24 24 24 25 25 24 24 24 24 23 22 22 23 23 24 24 25
82 82 82 82 81 81 82 82 83 84 85 85 85 85 85 84 83 82 82 82 81 80 80 80 80 80 80 81 80 79 78 76 76 75 75 73 71 68 65 63 62 60 60 59 58 56 53 50 47 44 41 40 40 42 42 41 39 38 36 33 28 27 28 29 30 30 27 23 23 24 24 25 25 25 25 24 24 23 23 23 23 24 25 25 26
83 83 83 82 81 81 81 82 83 84 85 86 86 87 87 86 84 83 83 83 82 81 80 80 80 81 81 80 79 76 74 73 72 72 71 69 66 62 61 59 58 58 58 56 54 51 48 46 43 41 40 40 42 42 41 39 38 38 36 32 28 26 27 28 30 30 27 23 22 24 24 25 25 26 25 25 24 24 23 23 24 24 25 26 27
84 84 83 82 81 81 82 83 84 85 85 86 87 87 88 87 85 85 85 83 82 81 81 81 81 81 79 78 75 71 70 69 69 67 62 60 59 57 56 56 56 56 54 52 50 47 45 43 42 40 40 41 42 40 39 39 39 39 37 32 28 26 26 27 29 30 27 23 22 23 23 25 26 27 26 25 24 24 24 24 24 24 26 28 28
85 84 82 81 81 81 83 84 85 86 86 86 86 87 88 89 88 87 86 84 83 82 82 81 80 79 77 75 69 65 66 66 65 59 50 51 53 52 53 54 54 53 50 47 46 43 41 41 40 39 39 42 40 38 38 39 40 39 36 31 27 26 25 26 28 30 27 24 23 22 23 26 28 27 26 26 25 25 25 25 25 25 27 29 30
84 83 82 82 82 82 83 85 85 86 86 86 86 86 88 89 89 88 86 85 83 81 80 79 78 78 77 70 60 60 63 60 57 52 46 48 50 50 51 51 51 49 46 44 42 40 38 37 37 37 39 40 37 36 38 39 40 38 35 30 27 26 25 25 27 28 27 26 24 23 24 27 28 28 26 26 26 26 26 27 27 27 28 30 31
82 82 82 83 83 83 83 84 85 85 85 85 85 86 87 88 88 88 86 83 81 80 79 79 78 75 71 61 54 57 58 53 50 47 45 46 47 49 49 48 47 45 43 41 39 38 35 35 35 36 37 35 34 35 37 39 39 37 34 30 27 26 26 25 25 27 27 27 25 23 25 28 28 28 27 27 26 27 27 28 29 29 29 31 32
82 83 84 84 84 84 83 84 84 84 85 85 85 86 87 86 87 86 84 82 82 83 83 80 71 64 58 51 51 52 48 44 44 43 43 44 45 46 45 44 43 41 39 38 36 35 34 33 32 32 32 32 33 35 37 38 37 36 33 30 27 26 27 26 24 25 27 27 26 25 26 28 28 28 28 27 27 28 29 30 31 31 30 31 32
83 84 85 85 85 85 84 85 85 85 85 85 86 87 86 86 85 85 85 85 85 84 82 72 58 50 47 46 48 45 41 39 40 40 41 42 43 42 41 40 39 38 37 36 35 35 34 31 28 30 32 33 34 36 37 37 36 35 34 31 29 27 28 28 24 25 28 28 28 26 27 28 28 28 28 28 28 30 32 32 32 31 31 31 32
83 84 85 85 86 86 86 86 86 86 85 85 87 87 86 86 85 85 84 83 81 78 72 58 48 46 44 45 46 42 39 38 38 39 39 40 40 38 37 36 35 35 35 35 35 35 33 29 30 32 33 35 36 37 37 36 35 36 36 34 30 28 30 29 25 25 29 30 31 29 28 29 29 29 29 29 30 33 33 33 32 31 30 31 32
82 84 85 87 87 87 87 85 83 83 83 83 83 82 81 81 80 78 75 72 70 65 58 51 49 48 45 46 48 44 41 39 39 39 40 40 39 36 35 34 33 33 35 36 36 34 32 31 33 34 35 36 37 38 38 37 36 37 38 36 33 31 32 31 27 26 29 32 33 31 29 30 30 29 30 31 32 34 34 33 31 30 29 31 32
84 85 84 84 83 85 83 76 72 71 70 67 66 65 65 65 65 65 64 63 63 58 54 54 56 55 52 53 54 51 46 43 41 40 41 40 38 35 34 33 33 35 37 37 35 34 33 35 36 35 35 36 37 38 38 39 39 39 40 38 36 35 34 32 28 27 30 32 33 32 31 31 30 30 32 32 33 34 33 31 29 28 29 31 32
79 79 77 75 74 77 73 65 63 62 59 57 56 57 58 58 58 59 60 62 63 59 57 59 60 62 62 61 59 57 52 46 42 41 41 40 38 37 36 35 36 37 37 37 36 36 38 39 37 35 35 36 36 37 38 40 41 41 42 41 40 39 37 33 30 29 31 33 34 33 32 32 31 30 32 32 32 32 31 30 28 28 29 31 33
72 71 69 65 61 62 64 64 66 65 60 58 57 59 61 62 62 63 63 63 63 61 60 61 62 64 64 60 57 55 50 45 42 42 41 41 40 40 39 39 38 38 38 38 39 40 42 41 39 36 35 35 36 37 38 40 42 43 44 43 41 40 37 34 32 30 32 33 34 34 33 33 32 31 31 31 31 31 30 29 28 28 28 30 31
68 66 60 55 54 56 63 70 71 68 63 58 58 61 64 66 66 66 65 63 62 62 61 61 61 60 57 52 49 46 44 42 41 41 42 42 42 42 42 42 41 40 41 42 43 44 44 43 40 38 36 35 36 38 39 40 41 43 45 44 42 40 38 35 33 32 33 34 34 34 34 34 33 32 31 32 32 31 30 29 28 28 27 29 30
59 61 62 64 68 68 70 73 70 67 62 57 58 60 62 65 66 64 63 61 60 60 58 56 56 53 49 46 43 40 39 38 38 40 42 43 44 44 44 43 43 43 43 44 45 46 45 43 42 39 38 37 37 38 39 40 41 43 45 45 44 41 38 35 33 34 35 35 34 34 35 35 34 33 32 32 32 31 29 28 27 27 27 28 30
62 66 71 73 74 74 72 69 66 64 62 61 60 58 58 60 61 60 60 59 59 58 55 51 50 49 46 44 41 40 39 38 38 40 43 45 46 46 45 43 43 44 45 45 46 47 46 44 42 41 40 39 39 40 41 42 42 43 45 46 44 41 37 35 35 35 36 36 35 35 36 36 34 34 33 33 32 31 30 29 29 29 29 29 30
66 67 70 69 67 67 67 65 67 68 65 62 59 57 57 57 58 59 59 59 59 59 56 52 52 51 49 49 48 47 45 44 44 46 47 48 49 49 47 45 45 47 48 47 47 46 45 44 43 43 43 42 42 42 43 43 44 44 44 45 44 40 37 36 36 37 37 37 37 37 37 35 34 34 34 33 33 33 32 32 31 31 30 30 32
64 65 66 68 68 70 71 73 76 73 63 56 55 56 58 58 58 59 58 57 58 58 56 54 54 55 55 57 58 56 54 54 54 54 53 52 51 49 48 47 48 48 47 45 44 44 44 45 45 46 46 46 45 45 45 45 45 44 43 43 42 40 38 38 38 39 39 39 38 37 35 33 34 35 34 33 34 33 32 32 31 31 31 32 33
61 63 64 67 70 72 74 77 79 74 63 59 60 60 60 59 58 58 57 56 56 54 53 52 53 54 55 58 59 58 58 58 58 57 55 53 51 49 48 47 47 46 44 42 43 44 46 48 50 51 51 49 47 46 46 46 47 45 42 41 40 40 40 41 41 41 40 40 38 36 34 32 32 34 33 34 34 33 33 32 31 31 32 33 33
60 62 64 65 67 69 71 75 77 75 71 69 69 68 65 62 60 58 55 54 52 50 50 50 51 52 53 56 57 58 58 58 57 56 54 52 50 47 45 44 44 42 41 42 44 47 50 54 56 55 52 49 47 46 46 46 47 47 45 42 40 40 41 42 43 43 41 39 37 35 33 32 32 33 33 34 34 33 34 34 33 32 32 33 34
59 60 62 64 66 66 68 71 75 77 79 78 77 75 72 66 60 55 51 49 47 47 48 48 49 51 53 55 56 57 57 57 56 55 52 49 45 42 40 40 40 40 42 44 47 51 55 57 56 52 50 49 48 47 47 46 47 48 48 46 43 41 42 42 42 41 39 38 36 34 33 33 32 33 33 33 33 34 35 35 34 32 31 32 33
58 58 59 62 64 65 66 69 72 75 79 80 80 77 72 65 55 48 45 44 44 46 48 49 50 51 52 52 53 54 53 52 50 47 44 40 36 36 37 39 42 44 46 48 51 54 56 55 52 50 49 49 48 48 48 47 46 47 47 47 46 43 41 40 40 39 38 37 35 34 34 33 32 32 32 32 33 34 34 35 35 32 30 31 32
54 55 56 59 61 64 65 67 68 71 74 76 76 73 67 61 55 49 47 47 48 48 48 48 49 49 49 48 47 46 44 42 39 35 33 30 31 34 39 42 45 47 48 50 53 54 53 50 48 47 48 48 47 47 46 46 45 45 45 44 43 41 39 39 39 39 38 37 35 34 34 33 32 32 32 32 32 32 33 34 34 32 30 31 32
51 53 54 57 59 62 64 65 66 67 70 72 73 71 67 63 61 58 56 53 50 46 43 42 41 41 40 39 38 35 33 32 31 31 30 29 32 36 40 43 46 47 49 52 52 51 50 47 45 44 45 45 44 44 43 43 43 42 41 40 39 39 39 40 40 40 39 37 36 35 34 33 33 33 33 32 32 31 32 33 33 32 31 31 32
53 53 54 56 58 60 62 64 65 66 68 70 70 70 68 66 64 60 56 49 42 38 35 34 33 32 31 31 31 30 29 29 30 30 30 32 36 39 42 45 47 49 51 51 50 49 48 45 43 42 41 41 40 40 40 40 40 40 39 37 36 37 39 40 40 39 38 38 37 36 35 34 34 34 34 33 32 32 32 33 33 32 31 32 33
54 52 53 55 57 58 60 62 64 65 66 68 68 67 65 63 58 51 46 39 35 34 33 32 32 30 29 29 30 30 29 30 31 33 33 36 40 42 44 46 48 49 49 49 49 48 46 43 41 40 39 38 37 37 37 38 38 39 38 36 34 33 34 36 37 37 38 38 38 37 36 36 36 36 35 35 33 32 32 33 33 32 31 32 34
51 51 52 53 55 56 58 60 61 62 63 64 63 60 56 54 47 40 38 36 34 35 34 34 34 32 32 31 31 32 33 35 36 38 39 41 43 44 46 46 47 47 47 48 48 47 44 42 39 38 36 35 34 34 35 36 36 37 37 35 33 32 31 32 34 36 38 39 39 38 37 37 38 38 37 35 34 33 32 32 32 31 31 32 33
48 49 51 52 53 54 55 56 57 57 58 57 56 52 49 46 43 40 39 38 37 37 36 35 34 34 35 35 35 36 38 40 41 42 44 45 46 47 47 47 47 48 48 49 48 47 44 41 38 36 34 32 32 32 33 34 35 35 34 33 32 32 32 32 34 36 39 40 40 39 38 38 39 40 38 36 34 34 33 33 32 32 32 32 32
45 47 48 50 51 52 53 54 54 53 51 49 46 44 43 42 42 43 41 40 40 39 39 38 37 37 37 38 40 41 41 43 44 45 47 48 48 49 48 48 49 49 50 49 48 46 43 40 37 34 32 31 29 28 29 32 34 35 34 33 33 34 34 33 34 36 39 41 40 39 39 39 39 40 39 37 36 36 35 35 34 34 33 33 32
43 45 46 48 49 49 50 51 51 51 49 46 43 41 41 42 43 44 43 43 42 42 41 41 41 41 42 42 43 44 45 46 47 48 49 49 49 50 50 50 51 50 50 49 47 44 42 39 36 33 31 29 27 24 26 32 35 35 37 37 36 36 36 36 35 35 36 39 41 40 40 40 40 40 40 39 38 38 38 38 37 36 35 35 33
42 44 45 45 46 47 48 48 49 50 50 49 49 47 46 46 45 44 45 45 44 44 43 42 43 45 45 46 46 47 48 49 50 50 50 51 51 52 52 53 52 50 49 48 46 43 41 38 34 31 29 28 27 23 26 34 36 35 37 39 40 39 38 38 38 36 34 36 38 39 38 39 40 42 42 41 41 41 40 40 39 38 36 36 35
40 41 42 43 44 45 46 47 47 47 48 49 50 50 50 50 48 45 45 47 47 46 46 46 47 48 48 49 49 50 51 52 52 52 52 52 53 53 53 53 52 49 48 47 44 42 39 37 34 30 28 27 26 25 27 34 36 36 36 37 38 39 39 40 41 40 38 36 35 35 34 35 37 38 39 39 40 40 40 39 39 38 38 37 36
39 39 40 40 41 43 44 45 45 46 47 48 48 49 49 49 49 48 47 48 49 49 50 51 52 52 52 53 53 54 54 54 55 55 54 54 54 54 53 52 50 48 47 45 42 40 37 36 33 30 27 25 25 26 28 32 35 37 38 38 37 36 37 40 41 41 40 38 37 36 36 35 36 36 35 36 37 37 37 37 38 39 39 39 36
38 38 38 39 39 41 42 43 45 45 46 47 47 47 47 47 48 48 49 50 52 53 54 56 56 55 55 56 57 57 56 56 56 56 56 55 55 55 53 52 49 47 45 42 40 38 36 34 32 29 27 24 24 24 26 29 32 36 39 40 40 39 39 40 41 41 40 40 40 40 38 36 36 36 35 35 36 36 35 34 35 37 39 39 35
38 38 38 37 38 39 41 43 45 46 46 46 46 46 46 47 47 47 48 49 52 55 57 59 59 58 58 59 59 58 57 57 57 57 57 56 55 54 53 51 49 46 42 39 37 35 34 33 31 29 26 25 23 23 24 26 28 31 35 38 41 43 44 44 44 44 43 43 43 42 38 35 35 37 36 37 37 36 35 33 32 36 39 38 35
36 36 35 34 35 37 39 43 45 45 44 45 45 45 45 46 46 46 47 47 48 51 53 56 58 58 59 59 59 58 57 57 56 55 54 53 53 52 51 50 48 44 40 36 33 32 32 31 30 28 27 25 23 22 23 23 24 26 29 32 36 40 43 45 47 47 47 47 45 42 38 33 34 37 37 38 38 36 35 33 33 36 39 37 35
33 33 32 31 30 31 35 39 43 43 43 44 44 44 45 46 46 47 47 47 48 48 49 50 52 53 55 55 55 54 54 53 52 50 49 49 49 49 48 46 44 41 38 34 31 29 29 29 29 28 27 25 23 22 22 22 22 23 25 26 29 32 35 39 41 44 46 47 46 42 38 34 33 35 37 38 37 37 37 36 36 38 40 39 35
30 28 27 25 21 20 26 35 42 42 42 42 42 43 45 46 47 49 49 50 50 49 49 49 50 50 52 52 51 50 49 48 47 46 46 45 45 45 44 42 40 38 35 32 30 28 27 27 27 27 27 26 25 23 22 22 22 22 23 23 24 26 28 29 31 34 37 40 41 40 39 38 36 35 36 37 35 35 38 39 38 39 40 41 38
23 21 20 19 18 24 34 41 43 43 40 39 40 42 44 46 48 50 51 52 52 51 50 50 49 48 48 48 48 46 46 45 44 43 42 41 41 41 40 39 37 35 32 30 29 27 26 25 25 25 26 27 26 25 23 22 22 22 22 22 22 23 24 24 26 28 30 32 34 36 39 41 40 37 36 37 37 36 38 39 39 39 40 41 41
16 18 20 18 19 28 39 45 48 48 45 42 41 42 43 44 46 49 51 52 51 51 50 49 48 46 45 45 44 42 41 41 40 40 39 38 38 38 37 36 35 32 30 29 27 26 25 25 25 24 25 26 27 26 25 24 23 22 21 21 21 22 22 22 23 25 26 28 30 34 39 44 44 41 38 38 40 41 41 41 40 39 40 41 41
Wind_Direction
296 296 295 296 296 296 296 295 295 294 294 294 294 294 294 294 295 295 295 294 295 295 294 295 295 295 296 296 292 294 299 303 304 304 308 312 310 303 299 298 297 298 298 300 304 307 308 309 309 308 308 307 308 308 309 310 310 312 312 311 311 311 311 310 311 311 310 309 307 306 306 304 304 303 302 301 297 291 285 282 282 282 276 271 267
295 295 295 295 295 295 294 294 294 294 294 294 294 294 294 294 294 293 293 293 293 293 294 294 294 295 296 294 290 293 298 302 303 302 304 310 309 302 298 298 298 298 299 301 303 305 306 307 307 308 307 306 305 306 307 308 309 311 311 312 312 312 311 311 311 311 309 307 306 305 305 304 303 301 300 298 293 286 281 280 281 279 274 270 265
293 293 293 293 293 293 293 293 293 293 294 294 294 294 294 293 292 292 292 291 292 292 293 294 294 296 296 293 289 291 296 299 300 300 302 305 305 300 298 298 298 299 300 301 301 302 303 305 306 306 306 305 304 305 306 307 309 311 312 313 313 312 311 311 311 309 308 306 305 304 304 303 301 299 298 294 289 283 279 279 279 276 273 269 262
292 292 292 292 292 292 292 292 293 292 292 293 293 293 292 291 291 291 291 291 292 292 293 294 294 295 294 292 290 291 294 296 297 297 299 301 300 297 295 294 295 297 298 299 299 299 301 303 305 305 305 304 304 304 306 307 309 311 312 313 313 312 312 311 309 308 306 305 304 304 303 301 299 297 294 289 285 281 278 278 277 275 272 267 260
291 292 292 292 291 291 291 292 292 291 291 292 292 292 291 291 291 290 291 291 292 293 294 294 294 293 292 291 290 290 292 294 295 295 297 299 298 295 293 292 293 294 296 297 298 299 301 303 304 304 303 303 304 305 306 308 309 310 312 313 313 312 311 309 308 306 305 304 303 303 302 300 297 294 289 285 283 279 277 277 277 275 272 265 258
290 290 290 290 290 290 291 291 291 291 291 291 291 291 291 291 290 290 291 292 293 294 294 294 294 293 292 291 291 290 291 292 294 295 296 297 296 295 295 295 295 296 297 298 299 301 302 303 304 303 303 303 304 305 307 308 309 310 312 312 312 312 310 307 306 305 303 303 303 302 300 297 294 290 285 283 282 278 276 276 277 275 271 264 257
289 289 289 289 289 289 290 290 290 290 289 289 289 289 290 290 290 291 291 292 293 294 294 294 295 295 294 294 293 293 293 293 294 295 295 296 296 295 295 296 297 298 299 300 302 302 303 303 303 303 302 303 304 306 307 307 308 309 311 312 312 311 307 305 304 303 303 302 302 300 298 295 290 285 283 283 281 277 275 276 278 276 270 262 257
288 287 287 288 289 289 288 288 288 288 287 287 288 288 289 289 290 290 291 292 292 293 293 294 295 295 295 295 296 296 296 296 296 296 296 295 295 295 295 296 296 297 298 300 301 301 302 302 302 302 302 303 304 306 306 306 307 308 309 311 311 309 305 303 302 302 302 302 301 298 295 291 287 283 283 282 279 275 275 277 279 276 269 261 257
286 286 287 288 288 287 286 286 286 286 286 287 287 287 288 288 289 289 290 291 291 292 293 294 295 295 295 295 296 297 297 297 297 296 296 296 295 294 294 295 295 296 297 297 298 299 300 300 300 301 301 303 304 305 305 306 305 306 308 310 311 307 303 301 302 301 301 301 298 295 292 288 284 282 282 280 276 272 273 278 279 275 268 261 257
285 286 287 288 287 286 286 286 286 286 287 287 287 288 288 288 288 289 289 290 291 292 293 294 294 295 295 295 296 296 297 297 297 296 296 295 294 294 294 294 294 294 294 295 296 298 298 298 299 301 302 303 304 304 305 304 303 304 307 309 309 305 302 301 300 300 300 298 294 291 289 287 284 282 281 278 274 270 272 279 280 274 266 261 258
286 287 287 287 286 286 286 286 287 287 287 287 287 287 287 287 288 288 289 290 290 292 293 293 294 294 294 295 295 296 296 297 297 296 296 294 294 294 294 294 293 293 293 294 295 297 297 298 300 301 302 302 302 304 304 302 300 302 306 309 309 304 301 299 299 299 297 293 289 289 288 288 284 281 279 276 273 270 273 279 280 274 267 261 259
286 286 286 286 285 285 286 286 286 287 287 287 287 287 287 287 288 289 289 290 291 291 292 293 293 294 294 294 295 296 296 297 297 296 295 294 294 294 294 292 291 292 293 294 295 296 296 298 300 301 301 300 301 303 302 299 298 302 306 308 307 304 299 298 298 297 294 288 285 287 289 288 284 280 277 274 271 270 273 279 281 276 268 262 260
285 286 285 285 286 286 286 286 286 286 286 287 287 287 287 288 289 289 289 290 291 292 292 292 293 293 293 294 295 296 296 297 297 297 296 294 294 293 292 290 290 291 293 294 294 295 296 298 299 300 298 298 301 301 298 296 297 301 305 306 305 303 298 297 297 296 291 282 282 287 289 289 285 280 275 271 269 269 272 277 280 278 272 265 261
285 285 285 286 286 286 286 286 286 286 286 287 288 289 289 289 290 290 290 290 291 292 292 292 292 293 294 295 296 296 297 297 297 297 296 293 293 291 290 290 290 291 292 293 293 294 295 296 298 297 295 297 300 298 295 294 297 301 303 303 303 301 296 296 296 294 287 277 280 285 288 291 288 281 274 269 267 269 271 275 279 279 275 268 262
285 285 286 286 286 286 286 286 286 286 287 287 288 289 290 290 290 290 291 291 291 292 292 292 293 293 294 295 296 295 295 296 297 296 291 289 290 289 289 289 290 290 291 292 292 293 294 296 297 295 293 296 298 296 294 294 297 300 301 299 300 299 294 295 295 291 282 273 276 283 291 295 290 282 273 268 267 269 271 274 277 278 276 270 264
285 286 286 286 286 286 286 286 286 287 287 288 288 289 289 290 290 290 291 292 292 292 293 293 294 295 295 295 292 290 292 295 296 294 288 288 289 288 288 288 289 290 290 291 291 292 294 296 296 294 293 295 296 295 294 294 296 297 297 296 297 295 292 294 294 288 278 271 274 281 294 298 290 281 272 268 268 269 271 274 276 278 276 270 264
285 285 285 285 284 285 285 286 286 287 287 288 289 289 288 289 290 291 292 292 293 293 293 294 296 295 294 290 285 287 292 294 293 292 289 288 287 287 287 287 289 290 290 289 289 291 293 295 296 295 294 294 294 294 293 294 295 295 294 293 294 292 288 292 292 284 275 270 273 281 295 298 289 280 271 267 267 270 273 275 276 277 275 270 264
283 283 283 283 283 284 284 284 285 285 286 287 288 287 288 289 290 291 292 292 292 292 293 295 296 293 291 286 284 290 291 290 289 288 287 286 285 285 285 287 289 290 289 288 289 290 294 296 295 295 295 295 293 292 292 293 293 291 290 289 291 288 284 289 290 281 273 268 271 279 292 297 288 279 272 267 267 272 275 277 277 276 273 268 263
282 282 282 283 283 283 283 283 283 284 285 286 286 286 287 288 289 289 290 290 291 291 292 294 292 288 290 287 288 291 286 286 287 286 285 285 284 283 284 286 288 288 287 288 291 294 296 296 295 296 297 295 293 292 291 291 289 287 286 285 286 283 280 285 286 277 270 266 269 276 287 295 288 278 273 268 270 275 278 278 278 275 269 264 261
281 282 282 282 282 282 282 282 283 284 284 284 284 285 286 286 287 287 288 289 289 290 291 289 284 285 289 289 289 285 280 283 284 284 284 284 282 279 281 285 285 286 288 292 295 297 297 295 296 297 297 296 293 291 289 287 285 282 281 281 280 278 276 281 283 274 268 265 266 274 283 292 288 277 272 270 273 277 279 280 277 272 265 261 259
281 281 282 283 283 284 283 283 283 283 283 283 284 285 285 285 285 286 286 286 286 287 286 281 278 281 285 288 289 282 276 278 280 282 284 284 282 278 280 284 285 289 293 297 297 297 295 295 297 296 295 295 293 291 287 283 280 277 276 276 275 273 273 276 279 270 266 264 265 272 279 288 287 276 272 272 275 277 279 279 275 267 262 259 257
282 283 284 286 288 287 285 284 284 283 283 285 286 288 286 284 282 282 282 283 283 283 279 276 275 276 280 285 287 283 275 275 278 281 283 285 282 280 283 284 286 292 296 297 297 295 294 295 295 293 293 293 293 290 286 282 278 274 272 271 270 270 271 273 275 266 264 265 266 271 277 284 284 275 272 272 275 277 278 277 271 265 261 259 257
285 287 289 290 289 287 284 283 284 285 287 290 292 291 287 283 281 281 281 282 282 280 277 276 276 276 280 284 285 281 275 273 278 280 282 283 282 283 285 285 288 292 294 295 294 292 292 294 292 291 292 290 289 287 285 282 279 274 271 269 267 268 269 271 272 263 261 265 267 272 275 281 280 272 271 271 273 276 278 274 268 264 262 261 259
287 289 290 290 285 279 278 283 288 288 288 290 291 290 286 284 283 282 282 282 281 280 277 277 278 280 283 284 281 276 272 274 278 280 280 280 281 283 285 287 290 292 292 292 292 291 293 294 292 291 292 289 287 284 283 281 279 276 272 270 267 266 267 269 269 260 258 263 267 271 273 277 276 269 269 270 272 276 277 273 267 266 265 263 260
286 288 286 284 279 275 280 287 290 288 286 287 289 288 285 283 282 281 281 281 280 278 276 277 280 283 284 280 274 271 274 277 279 279 279 279 280 282 285 288 290 291 292 293 293 295 296 296 293 292 292 292 288 284 282 280 277 275 272 270 267 265 265 267 265 258 257 260 265 269 271 275 272 265 266 268 271 274 275 271 267 266 266 264 262
277 277 276 275 276 276 280 284 284 283 283 284 285 285 283 279 278 279 279 281 281 278 276 278 280 280 277 272 270 273 276 279 279 279 279 280 281 283 286 290 292 293 293 294 296 297 298 296 293 292 293 293 290 286 282 278 276 273 271 269 267 265 265 265 262 257 257 259 263 266 270 274 268 263 264 266 269 271 272 268 265 266 267 266 264
269 269 270 272 274 273 274 275 274 275 277 279 280 280 280 277 276 277 278 280 282 278 274 275 275 273 270 269 271 274 276 277 279 279 280 281 283 285 288 291 293 292 293 294 295 296 296 294 292 292 293 293 291 287 281 277 274 271 269 268 267 264 263 263 260 258 257 259 263 265 270 271 263 260 262 264 267 269 269 267 266 268 269 268 265
271 269 268 267 266 265 266 269 271 274 276 275 273 273 276 278 279 278 276 279 281 278 274 272 269 267 266 269 274 276 277 277 278 280 282 284 284 285 287 289 289 290 293 294 294 295 294 293 292 292 293 293 291 287 281 275 271 268 266 266 265 262 261 260 259 258 257 259 263 266 269 268 260 259 261 263 266 268 269 268 269 270 270 269 265
272 270 266 263 260 260 261 264 269 273 273 269 268 271 275 279 282 280 277 277 279 277 276 274 270 268 266 269 274 277 278 279 281 284 286 287 287 286 286 287 288 291 294 295 294 294 294 293 293 294 294 294 291 286 279 271 267 265 263 263 262 260 258 258 257 256 257 260 264 267 268 265 259 259 260 262 267 269 268 269 270 271 272 270 265
271 270 267 264 262 262 261 261 264 267 268 267 268 272 275 279 282 281 279 277 277 277 277 276 273 272 270 271 274 277 280 282 284 286 288 289 289 288 288 289 290 292 293 293 294 295 295 296 297 297 295 292 289 283 277 269 264 261 261 259 258 257 257 257 256 257 259 262 265 267 267 262 258 258 259 263 268 268 267 269 270 272 273 269 264
271 270 268 267 264 263 262 261 260 260 263 266 268 271 273 278 281 281 278 276 276 276 276 276 275 275 274 274 276 279 282 285 287 288 289 290 289 288 289 289 290 291 291 293 296 298 299 300 299 297 293 289 285 280 275 270 263 259 258 258 257 258 258 258 258 260 261 263 264 266 264 259 256 256 258 263 265 265 267 269 269 271 271 267 264
271 270 269 268 266 265 263 262 260 258 260 264 266 269 272 277 280 278 276 275 275 276 277 278 277 277 276 276 278 282 285 288 289 290 291 289 287 287 288 289 289 290 291 294 298 301 302 302 300 296 291 286 282 276 271 268 263 259 257 257 257 258 259 259 260 259 260 262 264 263 261 257 254 254 258 261 262 263 267 268 268 268 266 266 265
270 269 268 268 267 266 264 262 261 261 262 264 266 269 272 275 277 276 275 276 277 278 278 278 278 278 279 280 282 285 288 288 289 290 289 286 285 286 288 288 289 290 293 296 300 302 304 304 300 294 288 283 279 274 269 266 263 259 257 257 257 258 258 259 259 259 261 263 263 260 258 257 254 255 257 259 260 262 266 268 268 264 263 266 268
270 269 267 267 266 266 265 263 263 263 264 265 266 269 271 273 274 276 278 279 280 280 280 280 280 281 283 284 285 285 285 285 284 285 284 283 285 290 291 292 293 296 299 301 304 306 306 304 299 293 287 282 278 273 270 266 263 258 256 256 256 255 254 256 258 261 263 263 260 258 258 256 255 256 257 258 259 261 264 266 266 264 264 268 269
271 269 266 265 264 264 264 264 264 265 265 265 266 268 270 271 273 276 279 282 284 284 284 283 282 282 281 280 279 276 276 279 281 282 282 284 289 293 296 298 300 302 303 304 307 309 308 303 299 294 288 283 278 274 270 266 261 257 255 254 254 253 252 254 257 259 260 258 256 256 256 256 256 256 257 258 258 259 261 263 264 265 267 269 269
273 270 266 263 262 262 263 263 264 265 265 266 267 268 270 272 274 277 280 282 282 280 278 276 274 270 268 267 268 267 270 277 284 287 287 289 292 294 296 299 301 302 303 305 310 312 308 302 298 294 289 283 278 273 268 264 259 255 253 252 253 253 252 253 255 257 256 254 253 254 255 255 254 254 256 258 258 258 260 262 262 264 268 271 271
272 269 265 263 262 261 262 262 263 264 265 266 267 269 271 273 275 275 275 273 269 267 264 263 262 260 260 262 264 266 270 277 284 288 290 291 294 295 297 300 301 303 305 308 313 314 308 301 297 293 289 283 278 273 267 262 257 253 251 250 249 249 249 251 253 255 255 253 253 254 254 253 252 253 256 258 259 259 261 261 261 264 267 271 272
270 268 265 263 262 261 261 261 262 263 264 265 267 269 270 272 270 265 263 259 256 257 257 257 258 258 260 264 266 268 271 273 278 282 286 289 292 295 298 300 303 305 309 312 316 316 309 302 298 294 289 283 278 271 265 260 255 252 249 247 246 246 247 250 253 253 254 255 255 255 254 252 251 254 256 257 258 259 260 261 262 265 269 272 271
268 266 265 264 263 262 261 261 261 262 264 265 268 269 268 267 261 257 255 251 250 251 253 255 257 259 262 265 267 270 271 273 275 279 283 287 290 293 297 300 304 307 311 314 316 315 309 303 299 294 289 283 277 272 268 262 256 251 247 245 244 245 246 249 253 253 252 254 255 256 255 253 253 254 255 256 256 258 260 262 264 266 270 275 273
267 265 265 264 264 263 262 262 262 262 263 265 267 265 265 262 256 256 253 250 252 252 254 256 257 261 265 266 269 270 273 276 278 281 284 288 291 293 297 300 304 308 312 314 314 313 309 303 299 295 289 283 277 275 274 267 259 252 246 243 242 245 247 249 251 250 248 250 253 255 256 255 255 255 254 254 254 256 260 263 265 266 270 275 275
266 266 265 265 265 265 264 264 263 263 262 261 260 257 258 256 253 256 254 252 257 258 259 261 260 263 267 270 273 274 278 281 284 286 288 290 292 295 298 301 305 309 312 313 312 310 306 302 299 295 290 283 276 272 267 262 259 254 248 244 243 246 249 250 251 248 244 244 247 251 255 256 257 257 255 253 253 255 259 262 264 266 268 272 274
267 267 267 267 267 268 268 267 266 266 264 262 260 257 255 254 253 255 255 255 259 262 265 268 268 269 270 274 278 281 283 286 288 290 292 293 295 297 300 302 306 309 311 311 310 307 304 300 297 294 291 284 275 267 257 254 255 254 250 247 246 246 248 249 250 250 246 243 243 246 251 255 256 256 256 255 255 257 259 261 263 265 268 271 272
268 268 270 270 271 272 272 272 272 271 270 268 267 263 260 258 255 253 254 256 258 263 268 272 275 277 277 280 283 285 288 290 291 293 294 296 297 299 301 303 306 308 309 309 308 304 301 297 293 291 289 284 275 264 255 252 252 252 251 249 248 247 247 248 249 250 250 248 245 246 252 256 257 259 259 258 258 259 260 261 263 265 268 269 268
269 269 271 273 274 275 276 277 276 275 274 272 271 268 265 263 259 254 253 255 257 262 268 272 276 279 281 283 285 288 290 291 293 294 294 296 297 299 300 302 304 306 307 306 305 301 298 295 291 288 286 283 277 268 260 256 253 251 251 250 249 247 248 250 250 250 250 250 249 252 258 262 262 263 263 261 259 259 259 261 263 264 264 264 264
269 269 271 273 275 278 279 280 279 277 275 273 272 271 270 267 265 261 258 257 257 261 266 270 274 277 279 282 286 288 290 291 292 293 294 295 296 297 298 300 302 303 304 303 302 299 295 292 289 288 286 282 278 272 264 259 255 253 251 251 249 247 247 250 252 252 252 253 254 258 263 265 263 263 263 262 259 257 258 259 259 260 259 259 261
267 269 272 275 278 281 283 284 283 280 278 276 274 273 273 271 270 269 266 263 261 261 264 268 272 275 277 280 284 286 288 289 290 291 292 293 294 295 296 298 299 300 299 299 298 296 294 290 287 286 285 285 282 276 269 263 258 255 253 251 250 248 248 249 252 254 255 255 257 260 262 262 260 259 259 259 258 255 255 254 253 254 256 257 259
267 271 274 279 284 287 289 287 283 282 281 280 278 275 274 273 272 272 271 270 269 267 268 269 272 274 276 278 280 282 284 286 287 289 290 291 292 293 294 295 296 296 295 294 295 294 293 289 285 284 284 284 284 281 276 270 265 260 256 254 252 250 249 250 251 253 254 255 256 257 257 254 252 254 254 253 253 253 252 251 248 249 253 255 257
270 274 279 287 293 296 297 288 279 281 283 280 278 276 274 274 274 274 274 273 273 272 271 271 273 274 276 277 279 281 282 284 285 286 288 289 289 290 291 292 292 292 292 291 291 292 292 288 284 283 283 283 283 282 279 274 270 265 261 258 255 253 251 250 251 252 252 253 253 252 249 243 241 247 250 249 249 249 248 247 246 246 250 253 254
275 282 288 293 290 278 275 270 268 276 280 276 274 274 276 277 277 277 276 275 274 273 273 272 273 275 276 278 279 279 281 282 283 284 285 285 285 287 288 289 289 289 288 289 289 289 291 289 285 283 283 283 283 282 280 277 273 269 265 263 260 258 255 252 252 251 251 250 249 246 240 235 234 239 246 248 246 246 246 245 245 246 248 250 251
282 288 283 277 267 251 249 251 257 266 271 272 275 276 278 278 276 276 275 275 275 275 275 274 273 274 275 277 278 279 280 281 281 281 281 280 281 283 285 286 286 286 286 288 289 289 291 293 290 286 283 283 283 282 281 279 276 272 269 267 264 262 259 255 253 252 251 250 248 243 235 230 230 233 240 245 244 242 243 244 245 245 246 248 250
261 253 247 252 265 263 257 256 258 262 266 269 273 276 278 277 275 273 273 275 276 276 275 273 273 273 274 275 277 278 280 280 280 278 276 275 276 279 282 283 282 282 283 285 288 291 294 296 296 293 288 285 283 283 283 281 279 275 272 269 267 265 263 260 257 255 252 250 247 244 237 232 230 230 233 239 242 243 243 243 245 245 246 248 250
Height
10877 10877 10877 10876 10875 10874 10873 10872 10872 10872 10871 10871 10870 10870 10869 10868 10866 10865 10864 10864 10864 10864 10864 10863 10862 10861 10860 10859 10857 10855 10853 10852 10851 10849 10847 10846 10844 10842 10840 10838 10838 10837 10836 10835 10835 10835 10834 10833 10832 10831 10829 10828 10826 10824 10823 10823 10821 10820 10818 10816 10815 10813 10810 10808 10805 10803 10802 10801 10800 10800 10799 10798 10797 10797 10797 10796 10796 10795 10795 10795 10795 10795 10795 10795 10795
10872 10872 10872 10871 10870 10869 10868 10867 10866 10866 10865 10864 10864 10864 10863 10863 10861 10860 10859 10859 10858 10859 10860 10859 10858 10857 10856 10855 10853 10851 10849 10848 10847 10846 10844 10842 10841 10839 10836 10835 10834 10833 10832 10831 10831 10830 10830 10829 10828 10826 10825 10824 10822 10821 10819 10818 10817 10815 10814 10812 10810 10809 10806 10804 10802 10800 10798 10798 10797 10796 10796 10795 10795 10794 10794 10793 10793 10793 10793 10793 10793 10793 10793 10793 10793
10868 10868 10867 10867 10866 10864 10862 10861 10861 10860 10859 10858 10858 10858 10858 10857 10856 10855 10854 10853 10853 10854 10855 10855 10854 10853 10852 10850 10849 10847 10846 10844 10843 10842 10840 10839 10838 10836 10834 10831 10830 10829 10828 10827 10826 10826 10825 10824 10823 10822 10820 10819 10818 10816 10815 10813 10812 10811 10810 10808 10807 10805 10803 10800 10798 10796 10795 10794 10794 10793 10793 10792 10792 10791 10791 10791 10791 10791 10791 10791 10791 10791 10791 10791 10791
10864 10863 10863 10862 10861 10859 10857 10856 10856 10855 10854 10854 10853 10853 10852 10852 10851 10850 10849 10848 10848 10849 10850 10850 10850 10850 10848 10846 10845 10843 10842 10840 10839 10838 10837 10835 10834 10833 10831 10828 10826 10825 10824 10823 10822 10821 10821 10820 10818 10817 10815 10814 10813 10811 10810 10809 10808 10807 10806 10804 10803 10801 10799 10797 10795 10793 10792 10791 10790 10790 10790 10789 10789 10789 10789 10788 10789 10789 10789 10789 10789 10790 10790 10789 10789
10859 10858 10858 10857 10855 10854 10852 10851 10850 10850 10849 10849 10849 10847 10846 10846 10845 10844 10844 10843 10843 10844 10845 10845 10845 10845 10843 10842 10841 10839 10837 10836 10835 10834 10832 10830 10829 10827 10826 10824 10822 10821 10820 10819 10818 10817 10816 10815 10813 10812 10810 10809 10808 10806 10805 10804 10803 10802 10802 10801 10800 10798 10795 10793 10792 10790 10789 10788 10787 10787 10787 10787 10786 10786 10786 10786 10787 10787 10787 10787 10788 10788 10788 10788 10788
10854 10854 10853 10852 10850 10849 10847 10846 10845 10843 10843 10843 10843 10842 10841 10840 10840 10839 10839 10839 10838 10838 10839 10840 10840 10839 10838 10837 10836 10834 10832 10831 10829 10828 10827 10825 10823 10821 10820 10818 10817 10815 10814 10814 10813 10812 10811 10809 10808 10806 10805 10803 10803 10801 10800 10800 10799 10799 10798 10798 10796 10794 10791 10790 10789 10788 10786 10785 10784 10784 10784 10784 10784 10784 10784 10784 10785 10785 10785 10785 10786 10786 10786 10786 10786
10850 10849 10848 10847 10846 10845 10843 10841 10839 10838 10837 10837 10837 10837 10836 10834 10834 10834 10834 10834 10834 10833 10833 10834 10834 10833 10832 10830 10829 10828 10827 10825 10824 10823 10821 10819 10817 10816 10814 10812 10811 10809 10808 10807 10807 10806 10805 10804 10803 10801 10799 10798 10798 10797 10796 10795 10795 10795 10795 10795 10793 10791 10788 10786 10786 10785 10784 10782 10781 10781 10781 10781 10781 10781 10782 10782 10783 10783 10783 10783 10784 10784 10784 10784 10785
10845 10844 10844 10843 10842 10841 10838 10836 10834 10833 10833 10832 10832 10831 10831 10829 10828 10829 10829 10829 10829 10828 10828 10828 10828 10827 10826 10824 10823 10822 10820 10819 10818 10817 10815 10814 10812 10810 10809 10807 10805 10804 10803 10802 10801 10800 10799 10798 10797 10796 10795 10794 10793 10793 10792 10791 10791 10791 10791 10791 10790 10787 10784 10783 10783 10782 10781 10780 10779 10778 10778 10779 10779 10779 10779 10780 10781 10781 10781 10781 10782 10782 10782 10782 10783
10840 10840 10840 10839 10837 10835 10833 10831 10828 10827 10827 10827 10826 10825 10825 10824 10823 10824 10824 10824 10823 10823 10823 10823 10823 10822 10820 10819 10817 10815 10814 10812 10811 10811 10810 10808 10806 10805 10803 10801 10800 10799 10798 10797 10796 10795 10794 10793 10792 10791 10790 10789 10789 10788 10788 10787 10786 10786 10787 10788 10787 10783 10781 10780 10780 10780 10779 10778 10776 10776 10776 10776 10777 10777 10777 10778 10778 10779 10779 10779 10779 10780 10780 10781 10781
10834 10835 10835 10834 10831 10829 10827 10825 10822 10821 10821 10820 10819 10818 10817 10818 10817 10818 10819 10818 10817 10818 10818 10817 10817 10816 10815 10813 10811 10809 10808 10806 10805 10804 10803 10802 10800 10799 10798 10796 10794 10793 10792 10791 10790 10789 10788 10787 10787 10787 10786 10785 10785 10784 10783 10783 10782 10782 10783 10784 10784 10780 10778 10777 10777 10777 10776 10775 10774 10774 10773 10774 10774 10774 10775 10775 10776 10777 10777 10777 10777 10778 10778 10779 10779
10830 10830 10830 10828 10826 10823 10821 10820 10816 10814 10814 10813 10812 10811 10809 10810 10811 10812 10812 10812 10812 10813 10812 10811 10810 10809 10808 10807 10805 10803 10801 10800 10798 10797 10796 10795 10794 10793 10792 10790 10788 10787 10786 10785 10785 10784 10783 10782 10783 10782 10782 10781 10781 10780 10779 10778 10778 10778 10779 10781 10781 10777 10775 10774 10774 10774 10774 10773 10772 10772 10771 10771 10772 10772 10772 10773 10773 10774 10775 10775 10775 10776 10776 10777 10777
10824 10824 10823 10821 10820 10818 10816 10814 10811 10808 10807 10805 10804 10803 10802 10803 10805 10806 10805 10805 10806 10807 10806 10805 10804 10802 10801 10800 10798 10797 10795 10793 10792 10790 10788 10787 10787 10786 10785 10784 10782 10780 10780 10779 10779 10779 10779 10778 10778 10778 10778 10777 10777 10776 10775 10774 10773 10774 10775 10777 10777 10775 10772 10771 10771 10771 10771 10771 10770 10770 10769 10769 10769 10770 10770 10770 10771 10772 10773 10773 10773 10774 10774 10775 10775
10817 10816 10816 10814 10814 10813 10810 10808 10805 10802 10800 10796 10795 10794 10793 10795 10798 10798 10798 10798 10799 10800 10800 10798 10797 10795 10794 10793 10791 10790 10789 10787 10785 10784 10782 10780 10780 10779 10778 10777 10776 10775 10774 10774 10774 10775 10775 10774 10774 10774 10774 10773 10772 10771 10770 10770 10769 10770 10771 10773 10773 10773 10771 10768 10768 10768 10768 10768 10768 10768 10767 10767 10767 10767 10767 10768 10769 10769 10770 10771 10771 10772 10772 10773 10773
10810 10809 10809 10809 10808 10807 10803 10799 10796 10794 10794 10790 10787 10786 10784 10786 10789 10789 10790 10791 10792 10792 10792 10791 10789 10788 10787 10786 10785 10784 10782 10781 10779 10779 10777 10774 10773 10773 10771 10770 10769 10769 10769 10769 10769 10771 10771 10770 10770 10770 10769 10769 10768 10767 10766 10765 10765 10766 10767 10769 10769 10769 10768 10766 10765 10765 10765 10766 10766 10766 10765 10765 10764 10764 10764 10765 10766 10767 10767 10768 10769 10769 10770 10770 10771
10802 10802 10802 10802 10801 10799 10795 10791 10788 10785 10784 10783 10782 10780 10778 10777 10779 10779 10781 10783 10784 10784 10784 10783 10782 10781 10781 10779 10779 10778 10776 10775 10773 10774 10774 10769 10767 10766 10765 10764 10763 10763 10764 10765 10765 10766 10767 10766 10766 10765 10765 10765 10764 10763 10762 10761 10761 10761 10763 10765 10766 10765 10765 10764 10763 10762 10762 10763 10764 10763 10763 10762 10762 10762 10762 10762 10763 10764 10765 10765 10766 10767 10767 10768 10768
10795 10795 10794 10793 10792 10791 10787 10782 10781 10778 10775 10775 10775 10774 10772 10770 10769 10770 10773 10774 10775 10775 10775 10775 10775 10774 10773 10772 10772 10771 10770 10769 10768 10768 10768 10764 10761 10760 10759 10758 10757 10758 10759 10760 10761 10762 10763 10762 10761 10761 10761 10761 10760 10760 10758 10757 10756 10757 10758 10761 10762 10762 10762 10762 10761 10759 10759 10760 10761 10761 10760 10760 10759 10759 10759 10760 10760 10761 10762 10763 10763 10764 10764 10765 10765
10789 10787 10785 10784 10783 10783 10780 10775 10773 10771 10768 10769 10768 10766 10764 10762 10761 10762 10764 10765 10766 10766 10766 10767 10767 10766 10765 10765 10765 10764 10764 10764 10762 10761 10759 10757 10755 10754 10753 10753 10752 10753 10754 10756 10757 10758 10759 10759 10758 10757 10757 10757 10757 10756 10754 10753 10752 10752 10753 10756 10758 10758 10758 10758 10758 10757 10756 10756 10757 10758 10758 10757 10757 10757 10757 10757 10757 10758 10759 10760 10760 10761 10761 10762 10762
10781 10779 10777 10776 10775 10775 10774 10769 10766 10764 10763 10763 10760 10757 10756 10756 10754 10754 10755 10757 10757 10757 10758 10759 10760 10758 10757 10757 10758 10758 10758 10758 10756 10754 10753 10751 10750 10749 10749 10749 10748 10749 10750 10751 10752 10753 10754 10755 10755 10754 10753 10753 10753 10752 10750 10749 10748 10747 10749 10752 10754 10754 10754 10755 10755 10754 10754 10753 10754 10755 10755 10755 10754 10754 10754 10754 10755 10755 10756 10757 10757 10758 10758 10759 10759
10773 10771 10769 10768 10766 10766 10765 10761 10759 10758 10758 10756 10751 10750 10751 10750 10749 10749 10749 10749 10750 10750 10750 10752 10753 10752 10751 10751 10751 10752 10752 10751 10750 10748 10747 10746 10745 10745 10745 10745 10745 10745 10746 10747 10748 10749 10751 10752 10752 10751 10750 10750 10749 10748 10746 10745 10743 10743 10744 10747 10749 10750 10750 10751 10751 10751 10751 10751 10750 10751 10752 10752 10752 10752 10752 10752 10752 10752 10753 10753 10754 10754 10754 10755 10756
10767 10764 10762 10760 10758 10757 10755 10753 10752 10751 10750 10748 10744 10744 10745 10744 10744 10743 10744 10743 10743 10743 10744 10746 10746 10745 10745 10745 10745 10746 10746 10745 10743 10742 10742 10742 10741 10741 10742 10742 10741 10741 10742 10742 10744 10745 10747 10748 10749 10748 10747 10746 10745 10744 10742 10741 10739 10738 10739 10741 10744 10745 10746 10746 10747 10748 10748 10748 10747 10748 10748 10749 10749 10749 10749 10749 10749 10749 10750 10750 10750 10750 10751 10752 10753
10761 10759 10755 10752 10750 10747 10745 10745 10745 10744 10742 10741 10740 10739 10739 10738 10738 10738 10738 10737 10736 10737 10738 10740 10740 10740 10740 10739 10740 10740 10740 10738 10737 10737 10737 10737 10738 10738 10738 10738 10738 10738 10738 10738 10739 10741 10743 10744 10745 10745 10744 10743 10742 10740 10738 10737 10735 10734 10734 10736 10739 10740 10742 10743 10743 10744 10744 10744 10744 10744 10745 10746 10746 10746 10746 10746 10746 10746 10746 10747 10747 10747 10748 10748 10749
10754 10753 10750 10747 10742 10735 10732 10734 10736 10735 10735 10736 10736 10734 10734 10733 10733 10732 10731 10730 10730 10731 10733 10734 10734 10734 10734 10734 10734 10734 10733 10732 10732 10732 10733 10733 10734 10734 10734 10734 10734 10734 10734 10734 10735 10736 10738 10739 10741 10741 10741 10740 10739 10737 10735 10733 10732 10730 10729 10731 10734 10735 10737 10738 10739 10740 10741 10741 10741 10741 10742 10742 10743 10743 10743 10743 10743 10743 10743 10743 10743 10744 10744 10745 10746
10749 10747 10744 10740 10734 10723 10718 10723 10726 10728 10730 10730 10729 10728 10728 10727 10726 10725 10724 10723 10723 10725 10727 10727 10728 10728 10727 10728 10728 10728 10727 10727 10728 10728 10729 10730 10730 10731 10730 10730 10730 10730 10730 10730 10731 10732 10732 10734 10736 10737 10737 10736 10736 10734 10732 10729 10728 10726 10724 10726 10729 10730 10732 10734 10735 10736 10737 10737 10737 10738 10738 10739 10739 10739 10740 10740 10740 10740 10740 10740 10740 10741 10741 10742 10743
10746 10743 10737 10731 10724 10714 10708 10714 10719 10722 10725 10724 10722 10721 10720 10720 10719 10717 10717 10717 10718 10719 10721 10721 10722 10721 10721 10722 10722 10722 10721 10722 10724 10724 10724 10725 10726 10726 10726 10726 10726 10726 10726 10726 10727 10727 10727 10729 10731 10732 10733 10732 10732 10731 10729 10726 10724 10722 10720 10720 10723 10725 10727 10729 10731 10732 10733 10733 10734 10735 10735 10735 10735 10736 10736 10737 10737 10737 10737 10737 10737 10738 10738 10739 10739
10742 10738 10732 10722 10713 10707 10703 10706 10712 10715 10717 10717 10717 10716 10715 10714 10712 10711 10712 10713 10713 10714 10715 10716 10717 10717 10717 10717 10717 10717 10717 10718 10720 10719 10720 10721 10721 10721 10722 10722 10721 10722 10722 10722 10722 10722 10723 10724 10725 10727 10728 10728 10727 10727 10725 10723 10721 10719 10716 10715 10717 10720 10722 10725 10726 10728 10729 10730 10731 10731 10731 10731 10731 10732 10733 10733 10734 10734 10734 10734 10734 10735 10736 10736 10736
10739 10732 10726 10717 10707 10704 10703 10702 10705 10707 10709 10710 10711 10711 10709 10707 10706 10707 10707 10708 10709 10709 10710 10712 10712 10713 10713 10713 10713 10712 10713 10714 10715 10715 10715 10715 10716 10717 10718 10718 10717 10717 10717 10717 10717 10717 10718 10718 10719 10721 10723 10723 10722 10722 10721 10719 10717 10715 10712 10710 10712 10715 10717 10720 10722 10723 10725 10726 10727 10728 10728 10727 10728 10728 10729 10730 10730 10731 10731 10731 10731 10732 10733 10733 10734
10731 10726 10720 10712 10706 10703 10702 10699 10698 10700 10703 10705 10706 10706 10703 10701 10701 10702 10703 10703 10704 10704 10705 10707 10708 10708 10709 10709 10708 10708 10709 10710 10710 10710 10710 10711 10712 10712 10714 10714 10713 10711 10712 10713 10712 10713 10713 10713 10714 10715 10717 10718 10717 10716 10715 10714 10712 10711 10708 10706 10707 10710 10712 10714 10717 10719 10721 10722 10724 10725 10724 10724 10724 10724 10725 10726 10727 10727 10728 10728 10729 10729 10730 10730 10731
10718 10716 10712 10708 10704 10701 10698 10693 10689 10692 10697 10700 10701 10699 10697 10696 10697 10697 10698 10699 10699 10699 10700 10702 10703 10704 10704 10704 10704 10704 10705 10705 10705 10705 10705 10706 10707 10708 10709 10710 10707 10706 10707 10708 10708 10708 10708 10708 10708 10710 10711 10712 10712 10711 10709 10708 10707 10706 10704 10703 10703 10705 10707 10710 10712 10714 10716 10718 10719 10721 10721 10721 10721 10721 10722 10723 10724 10724 10725 10725 10726 10726 10727 10727 10728
10706 10705 10703 10701 10699 10696 10694 10688 10684 10687 10691 10693 10693 10692 10692 10692 10693 10693 10693 10694 10694 10694 10694 10696 10697 10698 10699 10699 10699 10700 10700 10700 10700 10700 10700 10701 10702 10702 10703 10704 10702 10702 10703 10703 10703 10703 10703 10702 10703 10704 10704 10705 10706 10705 10704 10702 10701 10700 10700 10699 10699 10700 10703 10705 10707 10709 10711 10713 10715 10716 10717 10717 10717 10718 10719 10719 10720 10721 10721 10722 10723 10723 10723 10724 10724
10697 10695 10693 10693 10691 10689 10688 10685 10682 10683 10684 10684 10684 10685 10686 10687 10688 10688 10688 10688 10688 10689 10689 10691 10692 10693 10694 10695 10695 10695 10694 10694 10694 10695 10695 10696 10697 10697 10698 10698 10698 10698 10698 10698 10698 10698 10698 10697 10697 10698 10698 10698 10698 10698 10697 10697 10696 10695 10695 10695 10695 10696 10698 10700 10702 10704 10706 10708 10710 10712 10713 10714 10714 10715 10715 10716 10717 10717 10718 10719 10720 10720 10720 10721 10721
10690 10688 10685 10684 10683 10683 10681 10679 10679 10678 10678 10678 10678 10679 10681 10683 10684 10684 10684 10683 10683 10684 10685 10686 10686 10687 10689 10690 10690 10689 10689 10688 10688 10689 10690 10691 10692 10692 10692 10693 10693 10694 10694 10693 10693 10693 10692 10691 10691 10691 10690 10690 10691 10691 10691 10691 10691 10690 10690 10691 10692 10693 10694 10695 10697 10699 10701 10704 10706 10707 10709 10710 10711 10711 10712 10713 10713 10714 10714 10715 10716 10717 10717 10717 10718
10682 10680 10678 10676 10675 10676 10675 10673 10673 10673 10673 10672 10673 10674 10676 10678 10680 10679 10679 10679 10679 10679 10680 10681 10681 10682 10683 10684 10684 10684 10684 10683 10683 10685 10685 10686 10686 10687 10688 10688 10688 10688 10689 10689 10688 10688 10686 10685 10684 10684 10683 10683 10683 10684 10684 10684 10685 10685 10685 10686 10687 10689 10689 10691 10692 10694 10696 10698 10701 10703 10704 10706 10707 10708 10709 10709 10710 10710 10711 10711 10712 10713 10713 10714 10715
10675 10673 10672 10670 10669 10668 10668 10667 10667 10668 10668 10668 10668 10670 10672 10674 10674 10674 10674 10674 10675 10675 10675 10676 10676 10677 10678 10679 10680 10680 10680 10679 10680 10680 10679 10679 10681 10683 10683 10683 10683 10683 10684 10684 10683 10682 10680 10678 10677 10676 10676 10675 10676 10677 10677 10678 10679 10680 10680 10681 10682 10684 10685 10686 10687 10689 10691 10693 10696 10698 10700 10702 10703 10704 10705 10706 10707 10707 10708 10707 10708 10709 10710 10710 10711
10669 10668 10667 10665 10663 10661 10661 10661 10662 10662 10663 10663 10663 10665 10666 10667 10668 10668 10669 10670 10670 10671 10671 10671 10672 10673 10673 10674 10675 10676 10676 10675 10676 10675 10672 10674 10677 10678 10678 10678 10678 10678 10679 10678 10678 10676 10674 10671 10670 10670 10669 10669 10669 10670 10670 10671 10673 10674 10675 10676 10678 10679 10681 10681 10682 10684 10686 10688 10691 10693 10696 10697 10698 10700 10701 10703 10704 10704 10705 10704 10705 10706 10707 10707 10708
10664 10663 10662 10659 10657 10656 10655 10655 10656 10657 10656 10657 10658 10659 10660 10661 10662 10663 10664 10664 10665 10666 10666 10667 10668 10669 10670 10671 10672 10672 10672 10671 10671 10670 10669 10671 10673 10674 10674 10673 10673 10673 10673 10673 10672 10670 10668 10665 10664 10664 10663 10663 10663 10664 10665 10665 10667 10668 10670 10672 10673 10675 10676 10677 10678 10680 10681 10684 10686 10689 10691 10693 10694 10695 10697 10698 10700 10701 10701 10701 10702 10702 10703 10704 10704
10659 10658 10656 10653 10652 10651 10651 10650 10651 10651 10651 10651 10653 10654 10655 10655 10657 10658 10659 10660 10661 10662 10663 10664 10665 10666 10666 10667 10668 10668 10669 10668 10666 10665 10667 10668 10668 10669 10669 10668 10668 10668 10668 10668 10666 10664 10662 10660 10659 10659 10658 10658 10658 10659 10659 10660 10662 10663 10665 10667 10669 10670 10672 10673 10674 10675 10677 10679 10682 10684 10687 10688 10690 10691 10693 10694 10695 10696 10697 10698 10698 10699 10699 10700 10700
10653 10653 10650 10648 10647 10647 10647 10646 10646 10646 10646 10647 10648 10649 10650 10651 10653 10654 10655 10656 10657 10658 10659 10661 10662 10662 10662 10663 10664 10665 10665 10664 10663 10662 10663 10663 10663 10663 10663 10663 10663 10663 10663 10662 10661 10659 10657 10655 10654 10654 10653 10653 10654 10654 10655 10656 10658 10659 10661 10663 10665 10666 10668 10669 10670 10671 10673 10675 10677 10680 10682 10683 10685 10687 10688 10689 10691 10692 10693 10694 10695 10695 10696 10696 10696
10648 10646 10644 10643 10643 10643 10643 10641 10641 10642 10642 10642 10643 10645 10646 10647 10649 10650 10651 10652 10653 10653 10655 10656 10657 10657 10658 10658 10660 10660 10660 10660 10660 10660 10659 10659 10658 10658 10658 10658 10658 10658 10657 10657 10656 10654 10652 10651 10650 10650 10649 10649 10649 10650 10651 10652 10653 10655 10656 10658 10661 10662 10664 10665 10666 10668 10669 10671 10673 10675 10677 10679 10681 10682 10684 10685 10686 10687 10688 10689 10690 10691 10692 10692 10692
10642 10641 10638 10638 10638 10638 10637 10637 10637 10638 10638 10639 10639 10641 10642 10643 10644 10645 10646 10647 10648 10648 10649 10651 10652 10653 10654 10654 10655 10655 10655 10655 10656 10656 10655 10654 10654 10653 10653 10653 10653 10653 10652 10652 10651 10649 10648 10647 10646 10645 10645 10645 10646 10647 10648 10648 10649 10651 10652 10654 10656 10658 10659 10661 10663 10664 10665 10666 10668 10670 10672 10674 10676 10677 10679 10680 10681 10682 10684 10685 10686 10687 10688 10688 10687
10637 10635 10634 10633 10633 10632 10632 10632 10632 10634 10635 10636 10636 10638 10638 10639 10639 10640 10641 10641 10642 10643 10644 10646 10647 10648 10649 10650 10650 10650 10650 10650 10651 10651 10651 10650 10649 10648 10648 10648 10648 10648 10647 10647 10646 10645 10644 10643 10643 10642 10641 10642 10643 10646 10648 10646 10646 10647 10648 10650 10652 10654 10655 10657 10659 10660 10661 10662 10663 10665 10667 10669 10671 10672 10674 10675 10677 10678 10680 10681 10682 10683 10683 10683 10683
10632 10631 10629 10629 10628 10628 10628 10628 10628 10630 10631 10632 10633 10634 10635 10635 10635 10636 10637 10637 10637 10638 10639 10641 10642 10644 10645 10645 10645 10645 10645 10645 10645 10645 10645 10645 10644 10643 10643 10643 10643 10643 10643 10643 10642 10641 10640 10640 10639 10638 10638 10638 10640 10645 10646 10642 10642 10643 10644 10646 10647 10649 10651 10652 10654 10656 10658 10658 10659 10661 10663 10664 10666 10667 10669 10670 10672 10674 10676 10677 10677 10679 10679 10679 10679
10629 10627 10626 10625 10625 10624 10625 10625 10625 10626 10627 10628 10629 10629 10630 10631 10632 10633 10634 10634 10634 10634 10634 10636 10637 10639 10640 10640 10640 10640 10640 10640 10640 10640 10640 10640 10639 10638 10638 10638 10638 10638 10638 10638 10637 10637 10637 10636 10636 10635 10635 10635 10636 10641 10642 10638 10638 10640 10640 10642 10643 10645 10646 10648 10649 10651 10654 10655 10656 10658 10659 10659 10660 10661 10663 10665 10667 10669 10671 10672 10673 10674 10675 10675 10674
10626 10625 10624 10623 10623 10623 10622 10623 10623 10624 10624 10624 10624 10625 10625 10626 10628 10630 10631 10632 10632 10631 10630 10630 10631 10632 10633 10634 10635 10635 10635 10634 10634 10635 10635 10635 10635 10634 10633 10633 10633 10633 10633 10633 10633 10632 10632 10632 10633 10632 10632 10631 10631 10634 10635 10633 10634 10635 10636 10637 10638 10640 10642 10643 10644 10646 10649 10651 10653 10654 10655 10655 10656 10657 10659 10661 10663 10665 10667 10668 10669 10670 10670 10669 10668
10624 10623 10622 10621 10621 10621 10621 10621 10621 10621 10620 10620 10619 10620 10621 10622 10624 10626 10627 10628 10628 10628 10626 10626 10626 10627 10627 10628 10629 10629 10629 10629 10629 10630 10630 10630 10630 10629 10629 10629 10629 10629 10628 10629 10628 10628 10627 10627 10628 10628 10628 10628 10627 10628 10628 10628 10630 10631 10632 10633 10634 10636 10637 10637 10639 10641 10644 10647 10648 10649 10650 10650 10651 10653 10655 10657 10659 10660 10662 10664 10664 10665 10665 10663 10662
10620 10620 10621 10621 10621 10620 10620 10619 10618 10617 10616 10615 10615 10615 10616 10617 10619 10620 10622 10624 10624 10624 10622 10621 10621 10622 10622 10623 10623 10624 10624 10624 10624 10624 10625 10625 10625 10625 10625 10624 10624 10625 10624 10624 10624 10624 10624 10623 10623 10623 10624 10624 10624 10624 10624 10624 10624 10626 10627 10629 10630 10632 10632 10633 10634 10636 10639 10641 10643 10644 10645 10646 10647 10648 10650 10652 10654 10655 10657 10659 10660 10660 10659 10658 10659
10617 10618 10619 10620 10620 10620 10619 10616 10614 10613 10612 10612 10612 10611 10611 10612 10613 10615 10616 10618 10619 10620 10619 10618 10618 10618 10618 10619 10619 10619 10619 10619 10619 10619 10619 10620 10620 10620 10620 10620 10620 10621 10621 10621 10620 10620 10619 10619 10619 10619 10619 10619 10619 10620 10619 10619 10620 10621 10622 10624 10625 10626 10627 10629 10629 10631 10633 10635 10637 10639 10641 10641 10642 10643 10645 10647 10648 10651 10653 10654 10656 10655 10653 10654 10656
10615 10616 10617 10619 10619 10619 10617 10613 10609 10608 10608 10608 10607 10607 10606 10607 10607 10608 10610 10612 10613 10614 10615 10615 10614 10614 10614 10614 10614 10614 10614 10614 10614 10614 10614 10614 10615 10615 10615 10615 10615 10616 10617 10617 10617 10616 10615 10615 10615 10615 10615 10615 10615 10615 10615 10615 10616 10616 10617 10618 10620 10621 10622 10623 10624 10625 10627 10629 10631 10633 10636 10637 10637 10637 10640 10642 10644 10646 10648 10649 10651 10650 10649 10650 10652
10614 10615 10616 10617 10617 10617 10616 10610 10604 10603 10604 10603 10603 10602 10601 10602 10602 10603 10604 10606 10607 10608 10609 10610 10610 10609 10608 10609 10609 10608 10608 10608 10608 10608 10609 10609 10609 10610 10610 10610 10611 10611 10612 10613 10613 10613 10612 10612 10612 10612 10612 10612 10612 10611 10611 10612 10612 10612 10613 10614 10615 10616 10617 10618 10619 10620 10621 10622 10625 10627 10630 10632 10632 10632 10634 10637 10640 10642 10643 10644 10645 10645 10645 10647 10649
10613 10614 10614 10614 10614 10616 10614 10606 10599 10599 10599 10598 10597 10597 10596 10597 10598 10598 10599 10600 10601 10602 10604 10605 10605 10604 10603 10603 10603 10603 10602 10602 10603 10603 10603 10604 10604 10605 10605 10606 10606 10606 10607 10608 10608 10608 10608 10608 10608 10608 10608 10608 10608 10608 10608 10608 10608 10609 10609 10610 10610 10611 10612 10614 10615 10614 10615 10616 10619 10621 10624 10626 10627 10629 10630 10632 10636 10636 10636 10638 10640 10641 10642 10643 10646
10614 10612 10609 10606 10606 10607 10603 10597 10594 10595 10595 10594 10594 10593 10592 10592 10592 10592 10592 10592 10594 10596 10598 10599 10599 10600 10599 10597 10597 10597 10597 10597 10598 10598 10599 10599 10600 10600 10601 10601 10602 10602 10602 10603 10603 10604 10604 10604 10604 10605 10605 10605 10605 10605 10605 10605 10605 10605 10605 10606 10606 10607 10608 10609 10610 10610 10611 10612 10614 10616 10618 10620 10622 10625 10626 10628 10630 10630 10630 10633 10635 10637 10638 10640 10642
10610 10605 10601 10602 10603 10600 10594 10590 10589 10590 10591 10592 10590 10589 10587 10586 10586 10585 10585 10586 10588 10589 10590 10592 10594 10595 10595 10593 10592 10593 10593 10593 10593 10594 10595 10595 10596 10597 10598 10598 10598 10598 10598 10599 10599 10599 10599 10599 10600 10600 10601 10601 10602 10602 10602 10602 10602 10602 10602 10602 10603 10603 10604 10605 10605 10606 10607 10608 10610 10611 10612 10614 10617 10620 10621 10622 10623 10624 10626 10628 10630 10632 10634 10635 10637